| time (UTC) | temp F | wind direction | speed knots | gust knots | rain 1hr in | rain 24hr in | rain mn in | humidity % | barometer mb |
| 20260507164032 | 65 | 211 | 3.5 | 15.6 | 0.00 | 0.00 | 0.00 | 47 | 1018.2 |
| 20260507163529 | 64 | 104 | 0.9 | 8.7 | 0.00 | 0.00 | 0.00 | 49 | 1018.0 |
| 20260507163027 | 65 | 148 | 4.3 | 13.0 | 0.00 | 0.00 | 0.00 | 46 | 1018.5 |
| 20260507162526 | 63 | 225 | 0.9 | 10.4 | 0.00 | 0.00 | 0.00 | 49 | 1018.5 |
| 20260507162024 | 62 | 203 | 3.5 | 13.9 | 0.00 | 0.00 | 0.00 | 49 | 1018.4 |
| 20260507161520 | 64 | 170 | 3.5 | 14.8 | 0.00 | 0.00 | 0.00 | 47 | 1018.6 |
| 20260507161017 | 64 | 185 | 1.7 | 8.7 | 0.00 | 0.00 | 0.00 | 48 | 1018.2 |
| 20260507160513 | 62 | 151 | 2.6 | 9.6 | 0.00 | 0.00 | 0.00 | 50 | 1018.2 |
| 20260507160010 | 63 | 224 | 0.9 | 4.3 | 0.00 | 0.00 | 0.00 | 51 | 1018.5 |
| 20260507155505 | 62 | 179 | 4.3 | 17.4 | 0.00 | 0.00 | 0.00 | 50 | 1018.4 |
| 20260507155003 | 62 | 194 | 6.1 | 16.5 | 0.00 | 0.00 | 0.00 | 49 | 1018.5 |
| 20260507154459 | 61 | 221 | 1.7 | 7.8 | 0.00 | 0.00 | 0.00 | 53 | 1018.6 |
| 20260507153956 | 61 | 119 | 3.5 | 11.3 | 0.00 | 0.00 | 0.00 | 54 | 1018.6 |
| 20260507153453 | 61 | 10 | 4.3 | 9.6 | 0.00 | 0.00 | 0.00 | 55 | 1018.7 |
| 20260507152949 | 60 | 134 | 4.3 | 13.0 | 0.00 | 0.00 | 0.00 | 56 | 1018.7 |
| 20260507152445 | 60 | 329 | 1.7 | 7.8 | 0.00 | 0.00 | 0.00 | 56 | 1018.8 |
| 20260507151941 | 60 | 141 | 2.6 | 10.4 | 0.00 | 0.00 | 0.00 | 55 | 1018.8 |
| 20260507151438 | 60 | 62 | 2.6 | 7.0 | 0.00 | 0.00 | 0.00 | 59 | 1019.1 |
| 20260507150934 | 60 | 151 | 0.0 | 9.6 | 0.00 | 0.00 | 0.00 | 58 | 1019.1 |
| 20260507150432 | 59 | 119 | 2.6 | 13.0 | 0.00 | 0.00 | 0.00 | 59 | 1019.1 |
| 20260507145928 | 59 | 137 | 2.6 | 7.0 | 0.00 | 0.00 | 0.00 | 60 | 1019.0 |
| 20260507145424 | 59 | 178 | 1.7 | 7.8 | 0.00 | 0.00 | 0.00 | 61 | 1019.1 |
| 20260507144921 | 58 | 115 | 1.7 | 9.6 | 0.00 | 0.00 | 0.00 | 62 | 1019.1 |
| 20260507144418 | 58 | 135 | 3.5 | 9.6 | 0.00 | 0.00 | 0.00 | 61 | 1019.2 |
| 20260507143915 | 58 | 127 | 2.6 | 7.0 | 0.00 | 0.00 | 0.00 | 62 | 1019.4 |
| 20260507143412 | 58 | 112 | 3.5 | 10.4 | 0.00 | 0.00 | 0.00 | 63 | 1019.2 |
| 20260507142908 | 58 | 128 | 2.6 | 10.4 | 0.00 | 0.00 | 0.00 | 62 | 1019.5 |
| 20260507142404 | 57 | 119 | 1.7 | 7.8 | 0.00 | 0.00 | 0.00 | 63 | 1019.4 |
| 20260507141902 | 56 | 187 | 2.6 | 8.7 | 0.00 | 0.00 | 0.00 | 65 | 1019.2 |
| 20260507141358 | 56 | 12 | 3.5 | 5.2 | 0.00 | 0.00 | 0.00 | 66 | 1019.5 |
| 20260507140854 | 56 | 183 | 0.0 | 7.0 | 0.00 | 0.00 | 0.00 | 67 | 1019.4 |
| 20260507140351 | 55 | 147 | 2.6 | 7.0 | 0.00 | 0.00 | 0.00 | 69 | 1019.5 |
| 20260507135849 | 55 | 225 | 1.7 | 4.3 | 0.00 | 0.00 | 0.00 | 69 | 1019.7 |
| 20260507135346 | 55 | 133 | 4.3 | 6.1 | 0.00 | 0.00 | 0.00 | 69 | 1019.5 |
| 20260507134843 | 55 | 112 | 2.6 | 6.1 | 0.00 | 0.00 | 0.00 | 70 | 1019.5 |
| 20260507134339 | 55 | 149 | 2.6 | 5.2 | 0.00 | 0.00 | 0.00 | 71 | 1019.6 |
| 20260507133835 | 54 | 7 | 0.0 | 6.1 | 0.00 | 0.00 | 0.00 | 72 | 1019.6 |
| 20260507133331 | 53 | 345 | 1.7 | 4.3 | 0.00 | 0.00 | 0.00 | 74 | 1019.6 |
| 20260507132830 | 53 | 106 | 1.7 | 6.1 | 0.00 | 0.00 | 0.00 | 76 | 1019.7 |
| 20260507132325 | 52 | 28 | 1.7 | 5.2 | 0.00 | 0.00 | 0.00 | 77 | 1020.0 |
| 20260507131823 | 51 | 32 | 1.7 | 9.6 | 0.00 | 0.00 | 0.00 | 79 | 1019.8 |
| 20260507131319 | 50 | 60 | 0.9 | 4.3 | 0.00 | 0.00 | 0.00 | 81 | 1019.7 |
| 20260507130816 | 50 | 202 | 1.7 | 4.3 | 0.00 | 0.00 | 0.00 | 82 | 1019.7 |
| 20260507130314 | 49 | 156 | 0.0 | 4.3 | 0.00 | 0.00 | 0.00 | 83 | 1019.8 |
| 20260507125813 | 49 | 104 | 2.6 | 4.3 | 0.00 | 0.00 | 0.00 | 84 | 1019.7 |
| 20260507125310 | 48 | 137 | 1.7 | 2.6 | 0.00 | 0.00 | 0.00 | 84 | 1019.7 |
| 20260507124807 | 48 | 130 | 0.9 | 3.5 | 0.00 | 0.00 | 0.00 | 85 | 1019.6 |
| 20260507124303 | 48 | 116 | 0.9 | 3.5 | 0.00 | 0.00 | 0.00 | 85 | 1019.8 |
| 20260507123802 | 48 | 121 | 0.0 | 2.6 | 0.00 | 0.00 | 0.00 | 86 | 1019.6 |
| 20260507123259 | 47 | 187 | 0.0 | 3.5 | 0.00 | 0.00 | 0.00 | 87 | 1019.5 |
| 20260507122754 | 46 | 106 | 0.0 | 2.6 | 0.00 | 0.00 | 0.00 | 88 | 1019.5 |
| 20260507122250 | 46 | 95 | 0.0 | 2.6 | 0.00 | 0.00 | 0.00 | 90 | 1019.7 |
| 20260507121746 | 45 | 136 | 1.7 | 2.6 | 0.00 | 0.00 | 0.00 | 91 | 1019.7 |
| 20260507121242 | 45 | 89 | 0.0 | 2.6 | 0.00 | 0.00 | 0.00 | 91 | 1019.6 |
| 20260507120738 | 44 | 89 | 0.0 | 1.7 | 0.00 | 0.00 | 0.00 | 91 | 1019.8 |
| 20260507120235 | 44 | 97 | 0.0 | 2.6 | 0.00 | 0.00 | 0.00 | 91 | 1019.7 |
| 20260507115731 | 44 | 89 | 0.0 | 1.7 | 0.00 | 0.00 | 0.00 | 91 | 1019.5 |
| 20260507115222 | 44 | 119 | 0.0 | 1.7 | 0.00 | 0.00 | 0.00 | 91 | 1019.5 |
| 20260507114717 | 44 | 102 | 0.9 | 2.6 | 0.00 | 0.00 | 0.00 | 91 | 1019.2 |
| 20260507114215 | 44 | 119 | 1.7 | 2.6 | 0.00 | 0.00 | 0.00 | 91 | 1019.4 |
| 20260507113712 | 44 | 110 | 0.9 | 1.7 | 0.00 | 0.00 | 0.00 | 90 | 1019.2 |
| 20260507113209 | 44 | 300 | 0.0 | 1.7 | 0.00 | 0.00 | 0.00 | 90 | 1019.2 |
| 20260507112707 | 44 | 89 | 0.0 | 1.7 | 0.00 | 0.00 | 0.00 | 90 | 1019.2 |
| 20260507112203 | 44 | 129 | 0.0 | 0.9 | 0.00 | 0.00 | 0.00 | 89 | 1019.4 |
| 20260507111701 | 44 | 83 | 0.0 | 1.7 | 0.00 | 0.00 | 0.00 | 88 | 1019.2 |
| 20260507111158 | 44 | 89 | 0.0 | 1.7 | 0.00 | 0.00 | 0.00 | 89 | 1019.5 |
| 20260507110653 | 44 | 104 | 0.0 | 1.7 | 0.00 | 0.00 | 0.00 | 88 | 1019.2 |
| 20260507110151 | 44 | 131 | 0.0 | 1.7 | 0.00 | 0.00 | 0.00 | 88 | 1019.2 |
| 20260507105647 | 44 | 99 | 0.0 | 2.6 | 0.00 | 0.00 | 0.00 | 87 | 1019.2 |
| 20260507105143 | 45 | 92 | 0.0 | 1.7 | 0.00 | 0.00 | 0.00 | 87 | 1019.2 |
| 20260507104641 | 45 | 118 | 0.9 | 1.7 | 0.00 | 0.00 | 0.00 | 86 | 1019.2 |
| 20260507104137 | 46 | 135 | 0.0 | 1.7 | 0.00 | 0.00 | 0.00 | 85 | 1019.0 |
| 20260507103633 | 46 | 89 | 0.0 | 0.9 | 0.00 | 0.00 | 0.00 | 85 | 1019.4 |
| 20260507103130 | 46 | 135 | 0.0 | 1.7 | 0.00 | 0.00 | 0.00 | 85 | 1019.4 |
| 20260507102626 | 46 | 124 | 0.9 | 1.7 | 0.00 | 0.00 | 0.00 | 84 | 1019.5 |
| 20260507102123 | 46 | 125 | 0.0 | 1.7 | 0.00 | 0.00 | 0.00 | 84 | 1019.6 |
| 20260507101619 | 46 | 89 | 0.0 | 1.7 | 0.00 | 0.00 | 0.00 | 83 | 1019.6 |
| 20260507101115 | 47 | 121 | 0.0 | 1.7 | 0.00 | 0.00 | 0.00 | 83 | 1019.7 |
| 20260507100612 | 47 | 89 | 1.7 | 2.6 | 0.00 | 0.00 | 0.00 | 83 | 1019.8 |
| 20260507100110 | 47 | 102 | 0.0 | 1.7 | 0.00 | 0.00 | 0.00 | 82 | 1019.7 |
| 20260507095608 | 47 | 129 | 0.9 | 1.7 | 0.00 | 0.00 | 0.00 | 81 | 1019.8 |
| 20260507095104 | 48 | 138 | 0.0 | 1.7 | 0.00 | 0.00 | 0.00 | 80 | 1019.7 |
| 20260507094600 | 48 | 88 | 0.9 | 2.6 | 0.00 | 0.00 | 0.00 | 80 | 1019.8 |
| 20260507094057 | 48 | 105 | 0.0 | 1.7 | 0.00 | 0.00 | 0.00 | 78 | 1019.8 |
| 20260507093555 | 49 | 329 | 0.9 | 2.6 | 0.00 | 0.00 | 0.00 | 78 | 1019.9 |
| 20260507093054 | 49 | 14 | 0.0 | 2.6 | 0.00 | 0.00 | 0.00 | 77 | 1019.7 |
| 20260507092549 | 50 | 108 | 1.7 | 4.3 | 0.00 | 0.00 | 0.00 | 76 | 1019.8 |
| 20260507092046 | 49 | 78 | 0.0 | 2.6 | 0.00 | 0.00 | 0.00 | 77 | 1019.8 |
| 20260507091543 | 49 | 340 | 1.7 | 5.2 | 0.00 | 0.00 | 0.00 | 78 | 1019.8 |
| 20260507091039 | 48 | 302 | 2.6 | 4.3 | 0.00 | 0.00 | 0.00 | 80 | 1019.9 |
| 20260507090535 | 48 | 121 | 0.9 | 2.6 | 0.00 | 0.00 | 0.00 | 82 | 1019.7 |
| 20260507090032 | 47 | 290 | 0.9 | 2.6 | 0.00 | 0.00 | 0.00 | 83 | 1019.8 |
| 20260507085529 | 47 | 29 | 0.0 | 1.7 | 0.00 | 0.00 | 0.00 | 83 | 1019.9 |
| 20260507085026 | 48 | 190 | 0.0 | 0.9 | 0.00 | 0.00 | 0.00 | 82 | 1019.8 |
| 20260507084522 | 48 | 76 | 0.0 | 0.9 | 0.00 | 0.00 | 0.00 | 80 | 1019.7 |
| 20260507084020 | 49 | 101 | 0.0 | 1.7 | 0.00 | 0.00 | 0.00 | 80 | 1019.7 |
| 20260507083516 | 49 | 73 | 0.0 | 1.7 | 0.00 | 0.00 | 0.00 | 79 | 1019.9 |
| 20260507083013 | 49 | 122 | 0.0 | 0.9 | 0.00 | 0.00 | 0.00 | 79 | 1020.0 |
| 20260507082509 | 49 | 89 | 0.0 | 0.0 | 0.00 | 0.00 | 0.00 | 79 | 1019.9 |
| 20260507082005 | 50 | 89 | 0.0 | 1.7 | 0.00 | 0.00 | 0.00 | 78 | 1020.1 |
| 20260507081502 | 50 | 89 | 0.0 | 0.9 | 0.00 | 0.00 | 0.00 | 77 | 1020.1 |
| 20260507080959 | 50 | 129 | 0.0 | 0.9 | 0.00 | 0.00 | 0.00 | 77 | 1020.0 |
| 20260507080454 | 50 | 103 | 0.0 | 0.9 | 0.00 | 0.00 | 0.00 | 76 | 1020.1 |
| 20260507075950 | 50 | 58 | 0.0 | 0.9 | 0.00 | 0.00 | 0.00 | 75 | 1020.0 |
| 20260507075446 | 50 | 142 | 0.0 | 1.7 | 0.00 | 0.00 | 0.00 | 75 | 1020.1 |
| 20260507074943 | 51 | 50 | 0.0 | 1.7 | 0.00 | 0.00 | 0.00 | 75 | 1020.2 |
| 20260507074440 | 51 | 62 | 0.0 | 1.7 | 0.00 | 0.00 | 0.00 | 75 | 1020.2 |
| 20260507073938 | 51 | 96 | 0.0 | 1.7 | 0.00 | 0.00 | 0.00 | 74 | 1020.2 |
| 20260507073434 | 51 | 65 | 0.0 | 1.7 | 0.00 | 0.00 | 0.00 | 74 | 1020.2 |
| 20260507072931 | 51 | 215 | 0.0 | 1.7 | 0.00 | 0.00 | 0.00 | 74 | 1020.3 |
| 20260507072428 | 51 | 137 | 0.0 | 0.9 | 0.00 | 0.00 | 0.00 | 73 | 1020.0 |
| 20260507071920 | 51 | 114 | 0.0 | 1.7 | 0.00 | 0.00 | 0.00 | 73 | 1020.2 |
| 20260507071417 | 51 | 82 | 0.0 | 1.7 | 0.00 | 0.00 | 0.00 | 73 | 1020.4 |
| 20260507070913 | 51 | 79 | 0.0 | 1.7 | 0.00 | 0.00 | 0.00 | 73 | 1020.5 |
| 20260507070411 | 51 | 125 | 0.0 | 0.9 | 0.00 | 0.00 | 0.00 | 71 | 1020.5 |
| 20260507065907 | 52 | 60 | 0.9 | 1.7 | 0.00 | 0.00 | 0.00 | 71 | 1020.5 |
| 20260507065404 | 52 | 119 | 0.9 | 1.7 | 0.00 | 0.00 | 0.00 | 71 | 1020.6 |
| 20260507064901 | 51 | 122 | 1.7 | 1.7 | 0.00 | 0.00 | 0.00 | 72 | 1020.8 |
| 20260507064359 | 51 | 89 | 0.0 | 0.9 | 0.00 | 0.00 | 0.00 | 71 | 1020.6 |
| 20260507063857 | 51 | 124 | 0.0 | 1.7 | 0.00 | 0.00 | 0.00 | 70 | 1020.7 |
| 20260507063354 | 51 | 134 | 0.0 | 1.7 | 0.00 | 0.00 | 0.00 | 70 | 1020.6 |
| 20260507062851 | 52 | 75 | 0.0 | 0.9 | 0.00 | 0.00 | 0.00 | 69 | 1020.5 |
| 20260507062347 | 52 | 89 | 0.0 | 0.9 | 0.00 | 0.00 | 0.00 | 69 | 1020.6 |
| 20260507061845 | 52 | 108 | 0.9 | 1.7 | 0.00 | 0.00 | 0.00 | 68 | 1020.5 |
| 20260507061343 | 52 | 113 | 0.0 | 1.7 | 0.00 | 0.00 | 0.00 | 68 | 1020.5 |
| 20260507060841 | 52 | 243 | 0.0 | 0.9 | 0.00 | 0.00 | 0.00 | 67 | 1020.5 |
| 20260507060338 | 52 | 216 | 0.0 | 1.7 | 0.00 | 0.00 | 0.00 | 68 | 1020.7 |
| 20260507055835 | 52 | 112 | 0.0 | 1.7 | 0.00 | 0.00 | 0.00 | 68 | 1020.5 |
| 20260507055329 | 52 | 142 | 0.0 | 1.7 | 0.00 | 0.00 | 0.00 | 68 | 1020.8 |
| 20260507054827 | 52 | 188 | 0.0 | 0.9 | 0.00 | 0.00 | 0.00 | 68 | 1020.8 |
| 20260507054322 | 52 | 205 | 0.0 | 0.9 | 0.00 | 0.00 | 0.00 | 68 | 1020.7 |
| 20260507053820 | 52 | 202 | 0.0 | 0.9 | 0.00 | 0.00 | 0.00 | 68 | 1020.6 |
| 20260507053318 | 52 | 243 | 0.0 | 0.9 | 0.00 | 0.00 | 0.00 | 70 | 1020.7 |
| 20260507052817 | 51 | 120 | 0.0 | 1.7 | 0.00 | 0.00 | 0.00 | 70 | 1020.7 |
| 20260507052313 | 51 | 133 | 0.9 | 1.7 | 0.00 | 0.00 | 0.00 | 69 | 1020.6 |
| 20260507051811 | 51 | 89 | 0.0 | 1.7 | 0.00 | 0.00 | 0.00 | 68 | 1020.7 |
| 20260507051308 | 51 | 113 | 0.0 | 1.7 | 0.00 | 0.00 | 0.00 | 67 | 1020.5 |
| 20260507050804 | 51 | 69 | 0.0 | 0.9 | 0.00 | 0.00 | 0.00 | 67 | 1020.4 |
| 20260507050301 | 51 | 130 | 0.0 | 1.7 | 0.00 | 0.00 | 0.00 | 67 | 1020.5 |
| 20260507045758 | 51 | 89 | 0.0 | 0.0 | 0.00 | 0.08 | 0.08 | 67 | 1020.5 |
| 20260507045254 | 51 | 309 | 0.0 | 1.7 | 0.00 | 0.08 | 0.08 | 67 | 1020.5 |
| 20260507044751 | 51 | 89 | 0.0 | 0.9 | 0.00 | 0.08 | 0.08 | 65 | 1020.6 |
| 20260507044248 | 51 | 46 | 0.0 | 1.7 | 0.00 | 0.08 | 0.08 | 66 | 1020.6 |
| 20260507043744 | 51 | 284 | 0.0 | 1.7 | 0.00 | 0.08 | 0.08 | 65 | 1020.6 |
| 20260507043241 | 51 | 322 | 0.0 | 1.7 | 0.00 | 0.08 | 0.08 | 66 | 1020.5 |
| 20260507042737 | 51 | 62 | 0.9 | 1.7 | 0.00 | 0.08 | 0.08 | 64 | 1020.5 |
| 20260507042232 | 51 | 269 | 0.0 | 1.7 | 0.00 | 0.08 | 0.08 | 64 | 1020.7 |
| 20260507041730 | 51 | 89 | 0.0 | 1.7 | 0.00 | 0.08 | 0.08 | 61 | 1020.6 |
| 20260507041226 | 52 | 283 | 0.0 | 0.9 | 0.00 | 0.08 | 0.08 | 61 | 1020.5 |
| 20260507040724 | 53 | 84 | 0.0 | 0.9 | 0.00 | 0.08 | 0.08 | 57 | 1020.5 |
| 20260507040219 | 53 | 69 | 0.0 | 1.7 | 0.00 | 0.08 | 0.08 | 56 | 1020.7 |
| 20260507035715 | 54 | 89 | 0.0 | 1.7 | 0.00 | 0.08 | 0.08 | 55 | 1020.5 |
| 20260507035211 | 55 | 89 | 0.0 | 0.9 | 0.00 | 0.08 | 0.08 | 54 | 1020.9 |
| 20260507034708 | 55 | 89 | 0.0 | 1.7 | 0.00 | 0.08 | 0.08 | 53 | 1020.8 |
| 20260507034206 | 55 | 74 | 0.9 | 2.6 | 0.00 | 0.08 | 0.08 | 54 | 1020.8 |
| 20260507033704 | 55 | 84 | 0.0 | 3.5 | 0.00 | 0.08 | 0.08 | 53 | 1020.8 |
| 20260507033201 | 55 | 40 | 1.7 | 3.5 | 0.00 | 0.08 | 0.08 | 53 | 1020.5 |
| 20260507032659 | 55 | 47 | 1.7 | 3.5 | 0.00 | 0.08 | 0.08 | 55 | 1020.4 |
| 20260507032154 | 54 | 70 | 1.7 | 1.7 | 0.00 | 0.08 | 0.08 | 57 | 1020.4 |
| 20260507031651 | 54 | 31 | 0.0 | 1.7 | 0.00 | 0.08 | 0.08 | 57 | 1020.7 |
| 20260507031148 | 54 | 69 | 0.0 | 1.7 | 0.00 | 0.08 | 0.08 | 57 | 1020.5 |
| 20260507030644 | 55 | 86 | 0.9 | 1.7 | 0.00 | 0.08 | 0.08 | 58 | 1020.6 |
| 20260507030142 | 55 | 43 | 0.9 | 1.7 | 0.00 | 0.08 | 0.08 | 55 | 1020.5 |
| 20260507025639 | 55 | 63 | 0.0 | 0.9 | 0.00 | 0.08 | 0.08 | 55 | 1020.5 |
| 20260507025136 | 55 | 122 | 0.0 | 1.7 | 0.00 | 0.08 | 0.08 | 55 | 1020.5 |
| 20260507024634 | 56 | 89 | 0.0 | 0.9 | 0.00 | 0.08 | 0.08 | 54 | 1020.4 |
| 20260507024131 | 56 | 1 | 0.0 | 2.6 | 0.00 | 0.08 | 0.08 | 53 | 1020.3 |
| 20260507023626 | 56 | 57 | 0.0 | 2.6 | 0.00 | 0.08 | 0.08 | 54 | 1020.4 |
| 20260507023124 | 56 | 24 | 1.7 | 2.6 | 0.00 | 0.08 | 0.08 | 52 | 1020.2 |
| 20260507022621 | 56 | 36 | 1.7 | 5.2 | 0.00 | 0.08 | 0.08 | 52 | 1020.2 |
| 20260507022116 | 56 | 62 | 0.9 | 3.5 | 0.00 | 0.08 | 0.08 | 51 | 1020.2 |
| 20260507021613 | 57 | 8 | 2.6 | 3.5 | 0.00 | 0.08 | 0.08 | 52 | 1020.2 |
| 20260507021109 | 56 | 15 | 1.7 | 5.2 | 0.00 | 0.08 | 0.08 | 52 | 1020.1 |
| 20260507020607 | 56 | 34 | 1.7 | 1.7 | 0.00 | 0.08 | 0.08 | 52 | 1020.3 |
| 20260507020103 | 56 | 319 | 0.0 | 1.7 | 0.00 | 0.08 | 0.08 | 52 | 1019.9 |
| 20260507015602 | 57 | 43 | 0.0 | 2.6 | 0.00 | 0.08 | 0.08 | 52 | 1019.9 |
| 20260507015059 | 57 | 89 | 0.0 | 2.6 | 0.00 | 0.08 | 0.08 | 51 | 1019.9 |
| 20260507014555 | 57 | 22 | 0.0 | 2.6 | 0.00 | 0.08 | 0.08 | 51 | 1019.6 |
| 20260507014051 | 57 | 68 | 0.9 | 1.7 | 0.00 | 0.08 | 0.08 | 51 | 1019.6 |
| 20260507013548 | 57 | 55 | 0.0 | 2.6 | 0.00 | 0.08 | 0.08 | 51 | 1019.4 |
| 20260507013045 | 57 | 37 | 0.9 | 2.6 | 0.00 | 0.08 | 0.08 | 50 | 1019.4 |
| 20260507012542 | 57 | 22 | 2.6 | 3.5 | 0.00 | 0.08 | 0.08 | 50 | 1019.5 |
| 20260507012038 | 57 | 52 | 1.7 | 1.7 | 0.00 | 0.08 | 0.08 | 50 | 1019.1 |
| 20260507011535 | 57 | 297 | 1.7 | 1.7 | 0.00 | 0.08 | 0.08 | 50 | 1019.4 |
| 20260507011026 | 57 | 31 | 3.5 | 4.3 | 0.00 | 0.08 | 0.08 | 49 | 1019.4 |
| 20260507010521 | 57 | 2 | 3.5 | 4.3 | 0.00 | 0.08 | 0.08 | 50 | 1019.2 |
| 20260507010018 | 57 | 302 | 0.0 | 2.6 | 0.00 | 0.08 | 0.08 | 50 | 1019.1 |
| 20260507005515 | 57 | 31 | 2.6 | 4.3 | 0.00 | 0.08 | 0.08 | 49 | 1019.5 |
| 20260507005011 | 57 | 14 | 1.7 | 4.3 | 0.00 | 0.08 | 0.08 | 50 | 1019.4 |
| 20260507004508 | 57 | 24 | 1.7 | 3.5 | 0.00 | 0.08 | 0.08 | 50 | 1019.5 |
| 20260507004006 | 57 | 52 | 1.7 | 6.1 | 0.00 | 0.08 | 0.08 | 49 | 1019.5 |
| 20260507003501 | 58 | 9 | 2.6 | 4.3 | 0.00 | 0.08 | 0.08 | 49 | 1019.2 |
| 20260507002955 | 58 | 54 | 1.7 | 7.0 | 0.00 | 0.08 | 0.08 | 50 | 1019.4 |
| 20260507002452 | 57 | 96 | 1.7 | 5.2 | 0.00 | 0.08 | 0.08 | 49 | 1019.5 |
| 20260507001944 | 57 | 3 | 3.5 | 5.2 | 0.00 | 0.08 | 0.08 | 49 | 1019.4 |
| 20260507001440 | 57 | 320 | 0.9 | 6.1 | 0.00 | 0.08 | 0.08 | 49 | 1019.2 |
| 20260507000938 | 58 | 350 | 2.6 | 7.0 | 0.00 | 0.08 | 0.08 | 49 | 1019.5 |
| 20260507000435 | 58 | 20 | 3.5 | 8.7 | 0.00 | 0.08 | 0.08 | 48 | 1019.1 |
| 20260506235929 | 59 | 36 | 4.3 | 6.1 | 0.00 | 0.08 | 0.08 | 48 | 1019.2 |
| 20260506235427 | 58 | 27 | 3.5 | 7.8 | 0.00 | 0.08 | 0.08 | 47 | 1019.0 |
| 20260506234921 | 59 | 24 | 2.6 | 7.0 | 0.00 | 0.08 | 0.08 | 47 | 1019.1 |
| 20260506234420 | 58 | 23 | 4.3 | 10.4 | 0.00 | 0.08 | 0.08 | 47 | 1019.2 |
| 20260506233917 | 59 | 25 | 6.1 | 13.0 | 0.00 | 0.08 | 0.08 | 46 | 1018.9 |
| 20260506233414 | 59 | 26 | 5.2 | 8.7 | 0.00 | 0.08 | 0.08 | 46 | 1019.0 |
| 20260506232910 | 59 | 35 | 4.3 | 8.7 | 0.00 | 0.08 | 0.08 | 46 | 1019.0 |
| 20260506232406 | 59 | 46 | 2.6 | 7.8 | 0.00 | 0.08 | 0.08 | 46 | 1019.0 |
| 20260506231902 | 59 | 28 | 3.5 | 8.7 | 0.00 | 0.08 | 0.08 | 45 | 1019.0 |
| 20260506231400 | 59 | 15 | 4.3 | 5.2 | 0.00 | 0.08 | 0.08 | 46 | 1018.8 |
| 20260506230857 | 59 | 20 | 5.2 | 7.8 | 0.00 | 0.08 | 0.08 | 44 | 1018.7 |
| 20260506230354 | 59 | 46 | 1.7 | 9.6 | 0.00 | 0.08 | 0.08 | 46 | 1019.0 |
| 20260506225850 | 60 | 19 | 2.6 | 4.3 | 0.00 | 0.08 | 0.08 | 45 | 1018.8 |
| 20260506225348 | 60 | 25 | 4.3 | 7.8 | 0.00 | 0.08 | 0.08 | 44 | 1018.8 |
| 20260506224844 | 61 | 14 | 4.3 | 10.4 | 0.00 | 0.08 | 0.08 | 43 | 1018.8 |
| 20260506224342 | 59 | 14 | 6.1 | 7.0 | 0.00 | 0.08 | 0.08 | 45 | 1018.6 |
| 20260506223838 | 60 | 29 | 2.6 | 7.0 | 0.00 | 0.08 | 0.08 | 45 | 1018.8 |
| 20260506223333 | 59 | 354 | 4.3 | 9.6 | 0.00 | 0.08 | 0.08 | 44 | 1018.7 |
| 20260506222831 | 59 | 9 | 4.3 | 10.4 | 0.00 | 0.08 | 0.08 | 45 | 1018.8 |
| 20260506222326 | 60 | 49 | 1.7 | 4.3 | 0.00 | 0.08 | 0.08 | 45 | 1018.7 |
| 20260506221825 | 59 | 19 | 3.5 | 7.8 | 0.00 | 0.08 | 0.08 | 45 | 1018.6 |
| 20260506221322 | 59 | 33 | 3.5 | 7.8 | 0.00 | 0.08 | 0.08 | 44 | 1018.7 |
| 20260506220819 | 60 | 42 | 3.5 | 11.3 | 0.00 | 0.08 | 0.08 | 45 | 1018.7 |
| 20260506220314 | 60 | 358 | 3.5 | 9.6 | 0.00 | 0.08 | 0.08 | 45 | 1018.7 |
| 20260506215811 | 60 | 74 | 1.7 | 7.0 | 0.00 | 0.08 | 0.08 | 45 | 1018.6 |
| 20260506215307 | 61 | 17 | 6.1 | 7.0 | 0.00 | 0.08 | 0.08 | 44 | 1018.9 |
| 20260506214803 | 62 | 48 | 1.7 | 4.3 | 0.00 | 0.08 | 0.08 | 44 | 1018.6 |
| 20260506214300 | 62 | 76 | 4.3 | 9.6 | 0.00 | 0.08 | 0.08 | 43 | 1018.8 |
| 20260506213758 | 61 | 305 | 3.5 | 7.0 | 0.00 | 0.08 | 0.08 | 42 | 1018.8 |
| 20260506213254 | 59 | 44 | 3.5 | 8.7 | 0.00 | 0.08 | 0.08 | 44 | 1018.9 |
| 20260506212752 | 61 | 76 | 1.7 | 5.2 | 0.00 | 0.08 | 0.08 | 44 | 1018.7 |
| 20260506212248 | 62 | 52 | 3.5 | 5.2 | 0.00 | 0.08 | 0.08 | 44 | 1018.9 |
| 20260506211743 | 62 | 96 | 2.6 | 4.3 | 0.00 | 0.08 | 0.08 | 42 | 1019.0 |
| 20260506211240 | 61 | 35 | 5.2 | 7.0 | 0.00 | 0.08 | 0.08 | 43 | 1019.1 |
| 20260506210737 | 60 | 110 | 1.7 | 5.2 | 0.00 | 0.08 | 0.08 | 43 | 1019.1 |
| 20260506210233 | 60 | 101 | 2.6 | 8.7 | 0.00 | 0.08 | 0.08 | 45 | 1019.4 |
| 20260506205730 | 60 | 113 | 1.7 | 9.6 | 0.00 | 0.08 | 0.08 | 44 | 1019.4 |
| 20260506205225 | 60 | 356 | 4.3 | 8.7 | 0.00 | 0.08 | 0.08 | 41 | 1019.1 |
| 20260506204718 | 60 | 12 | 2.6 | 6.1 | 0.00 | 0.08 | 0.08 | 42 | 1019.5 |
| 20260506204215 | 61 | 358 | 8.7 | 8.7 | 0.00 | 0.08 | 0.08 | 42 | 1019.4 |
| 20260506203713 | 60 | 2 | 5.2 | 8.7 | 0.00 | 0.08 | 0.08 | 45 | 1019.6 |
| 20260506203210 | 60 | 114 | 1.7 | 8.7 | 0.00 | 0.08 | 0.08 | 45 | 1019.7 |
| 20260506202708 | 61 | 16 | 3.5 | 7.0 | 0.00 | 0.08 | 0.08 | 45 | 1019.8 |
| 20260506202203 | 60 | 25 | 2.6 | 5.2 | 0.00 | 0.08 | 0.08 | 45 | 1020.0 |
| 20260506201700 | 59 | 17 | 3.5 | 7.8 | 0.00 | 0.08 | 0.08 | 44 | 1020.0 |
| 20260506201156 | 59 | 344 | 4.3 | 8.7 | 0.00 | 0.08 | 0.08 | 43 | 1020.1 |
| 20260506200653 | 61 | 65 | 2.6 | 3.5 | 0.00 | 0.08 | 0.08 | 44 | 1020.1 |
| 20260506200150 | 61 | 38 | 6.1 | 7.0 | 0.00 | 0.08 | 0.08 | 45 | 1019.9 |
| 20260506195647 | 60 | 83 | 2.6 | 5.2 | 0.00 | 0.08 | 0.08 | 43 | 1020.1 |
| 20260506195143 | 60 | 47 | 4.3 | 10.4 | 0.00 | 0.08 | 0.08 | 44 | 1020.1 |
| 20260506194641 | 59 | 71 | 0.0 | 6.1 | 0.00 | 0.08 | 0.08 | 46 | 1020.1 |
| 20260506194137 | 59 | 22 | 5.2 | 9.6 | 0.00 | 0.08 | 0.08 | 45 | 1020.4 |
| 20260506193635 | 60 | 84 | 2.6 | 7.0 | 0.00 | 0.08 | 0.08 | 46 | 1020.2 |
| 20260506193132 | 59 | 350 | 0.9 | 12.2 | 0.00 | 0.08 | 0.08 | 47 | 1020.1 |
| 20260506192628 | 59 | 336 | 5.2 | 9.6 | 0.00 | 0.08 | 0.08 | 47 | 1020.3 |
| 20260506192124 | 58 | 27 | 4.3 | 9.6 | 0.00 | 0.08 | 0.08 | 48 | 1020.3 |
| 20260506191621 | 59 | 30 | 9.6 | 12.2 | 0.00 | 0.08 | 0.08 | 50 | 1020.2 |
| 20260506191117 | 58 | 3 | 9.6 | 11.3 | 0.00 | 0.08 | 0.08 | 48 | 1020.3 |
| 20260506190615 | 58 | 354 | 3.5 | 7.0 | 0.00 | 0.08 | 0.08 | 48 | 1020.3 |
| 20260506190112 | 58 | 0 | 4.3 | 13.0 | 0.00 | 0.08 | 0.08 | 48 | 1020.4 |
| 20260506185609 | 59 | 52 | 2.6 | 7.8 | 0.00 | 0.08 | 0.08 | 49 | 1020.1 |
| 20260506185105 | 58 | 346 | 8.7 | 12.2 | 0.00 | 0.08 | 0.08 | 48 | 1020.2 |
| 20260506184602 | 59 | 14 | 12.2 | 13.9 | 0.00 | 0.08 | 0.08 | 48 | 1020.4 |
| 20260506184100 | 59 | 82 | 1.7 | 7.8 | 0.00 | 0.08 | 0.08 | 53 | 1020.3 |
| 20260506183556 | 58 | 7 | 6.1 | 13.9 | 0.00 | 0.08 | 0.08 | 49 | 1020.4 |
| 20260506183052 | 60 | 46 | 5.2 | 5.2 | 0.00 | 0.08 | 0.08 | 48 | 1020.6 |
| 20260506182550 | 59 | 68 | 2.6 | 8.7 | 0.00 | 0.08 | 0.08 | 51 | 1020.4 |
| 20260506182047 | 56 | 52 | 5.2 | 11.3 | 0.00 | 0.08 | 0.08 | 48 | 1020.7 |
| 20260506181545 | 56 | 22 | 8.7 | 11.3 | 0.00 | 0.08 | 0.08 | 51 | 1020.7 |
| 20260506181041 | 57 | 30 | 7.0 | 12.2 | 0.00 | 0.08 | 0.08 | 51 | 1020.9 |
| 20260506180538 | 56 | 23 | 7.8 | 13.9 | 0.00 | 0.08 | 0.08 | 55 | 1020.8 |
| 20260506180034 | 56 | 33 | 3.5 | 6.1 | 0.00 | 0.08 | 0.08 | 55 | 1021.0 |
| 20260506175531 | 56 | 39 | 6.1 | 14.8 | 0.00 | 0.08 | 0.08 | 52 | 1021.0 |
| 20260506175027 | 56 | 53 | 2.6 | 14.8 | 0.00 | 0.08 | 0.08 | 54 | 1021.0 |
| 20260506174526 | 55 | 77 | 1.7 | 6.1 | 0.00 | 0.08 | 0.08 | 57 | 1020.9 |
| 20260506174022 | 55 | 359 | 8.7 | 13.0 | 0.00 | 0.08 | 0.08 | 54 | 1021.2 |
| 20260506173520 | 55 | 358 | 7.0 | 7.8 | 0.00 | 0.08 | 0.08 | 56 | 1021.3 |
| 20260506173017 | 55 | 13 | 5.2 | 9.6 | 0.00 | 0.08 | 0.08 | 56 | 1021.3 |
| 20260506172514 | 55 | 50 | 1.7 | 13.0 | 0.00 | 0.08 | 0.08 | 58 | 1021.2 |
| 20260506172010 | 55 | 43 | 3.5 | 6.1 | 0.00 | 0.08 | 0.08 | 59 | 1021.2 |
| 20260506171508 | 55 | 83 | 4.3 | 11.3 | 0.00 | 0.08 | 0.08 | 60 | 1021.2 |
| 20260506171005 | 54 | 20 | 5.2 | 12.2 | 0.00 | 0.08 | 0.08 | 63 | 1021.0 |
| 20260506170501 | 54 | 28 | 9.6 | 12.2 | 0.00 | 0.08 | 0.08 | 62 | 1020.9 |
| 20260506165954 | 54 | 23 | 7.8 | 13.9 | 0.00 | 0.08 | 0.08 | 63 | 1021.2 |
| 20260506165452 | 53 | 24 | 5.2 | 11.3 | 0.00 | 0.08 | 0.08 | 64 | 1021.1 |
| 20260506164942 | 53 | 35 | 4.3 | 8.7 | 0.00 | 0.08 | 0.08 | 66 | 1021.2 |
| 20260506164439 | 53 | 11 | 5.2 | 8.7 | 0.00 | 0.08 | 0.08 | 65 | 1021.1 |